User: anonymous   Login
Location: Norwich
(52.6280°N, 1.3030°E)
Time: 05:04:13
(UTC+01:00)
Language:

ATLAS 5 CENTAUR R/B - Orbit

View from above orbital plane
View from above orbital plane
View from above satellite
View from above satellite

Ground track
Ground track

The orbit data is extracted from the following two-line orbital elements,

1 32379U 07060B   16090.19959060 0.00022000  00000-0  14269-2 0    03
2 32379  60.8477  57.0272 5226382 256.2855 103.7145  5.31065038    04
Epoch (UTC): 30 March 2016 04:47:24
Eccentricity: 0.5226382
inclination: 60.8477°
perigee height: 246 km
apogee height: 14752 km
right ascension of ascending node: 57.0272°
argument of perigee: 256.2855°
revolutions per day: 5.31065038
mean anomaly at epoch: 103.7145°
orbit number at epoch: 0

The dashed part of the orbit path shows where the satellite is in the earth's shadow,  

DLR